Change the Weather History Date:

Saturday, November 12, 2011

  Actual Average Record
Temperature  
Mean Temperature 37 °F -  
Max Temperature 50 °F 40 °F 55 °F (2005)
Min Temperature 26 °F 27 °F 5 °F (1986)
Degree Days  
Heating Degree Days 28    
Moisture  
Dew Point 31 °F    
Average Humidity 69    
Maximum Humidity 80    
Minimum Humidity 57    
Precipitation  
Precipitation 0.00 in - - ()
Sea Level Pressure  
Sea Level Pressure 29.60 in    
Wind  
Wind Speed 8 mph (SSW)    
Max Wind Speed 14 mph    
Max Gust Speed 21 mph    
Visibility 10 miles    
Events      
Averages and records for this station are not official NWS values.
T = Trace of Precipitation, MM = Missing Value Source: NWS Daily Summary

Daily Weather History Graph

Daily Weather History Graph

Search for Another Location

Airport or City:

Trip Planner

Search our weather history database for the weather conditions in past years. The results will help you decide how hot, cold, wet, or windy it might be!

Date:

Astronomy

Nov. 12, 2011 Rise Set
Actual Time 7:43 AM EST 5:20 PM EST
Civil Twilight 7:11 AM EST 5:52 PM EST
Nautical Twilight 6:35 AM EST 6:28 PM EST
Astronomical Twilight 6:00 AM EST 7:03 PM EST
Moon 6:30 PM EST (11/12) 9:31 AM EST (11/12)
Length of Visible Light 10h 41m
Length of Day
9h 37m
Full, 97% of the Moon is Illuminated
Nov 12
Full
Nov 18
Last Quarter
Nov 25
New
Dec 2
First Quarter
Dec 10
Full

Hourly Weather History & Observations

Time (EST) Temp. Windchill Dew Point Humidity Pressure Visibility Wind Dir Wind Speed Gust Speed Precip Events Conditions
12:15 AM 35.6 °F 28.0 °F 23.0 °F 60% 29.59 in 10.0 mi WSW 10.4 mph - N/A   Clear
1:35 AM 35.6 °F 28.0 °F 23.0 °F 60% 29.59 in 10.0 mi WSW 10.4 mph - N/A   Clear
1:55 AM 35.6 °F 28.0 °F 23.0 °F 60% 29.59 in 10.0 mi WSW 10.4 mph 16.1 mph N/A   Clear
2:15 AM 33.8 °F 26.4 °F 23.0 °F 65% 29.60 in 10.0 mi West 9.2 mph - N/A   Clear
2:35 AM 33.8 °F 27.7 °F 23.0 °F 65% 29.59 in 10.0 mi West 6.9 mph - N/A   Clear
2:55 AM 32.0 °F 25.6 °F 23.0 °F 69% 29.59 in 10.0 mi West 6.9 mph - N/A   Clear
3:15 AM 32.0 °F 24.8 °F 21.2 °F 64% 29.59 in 10.0 mi West 8.1 mph - N/A   Clear
3:35 AM 30.2 °F 25.4 °F 21.2 °F 69% 29.59 in 10.0 mi West 4.6 mph - N/A   Clear
3:55 AM 30.2 °F 26.7 °F 23.0 °F 75% 29.59 in 10.0 mi WNW 3.5 mph - N/A   Clear
4:15 AM 30.2 °F - 21.2 °F 69% 29.60 in 10.0 mi Calm Calm - N/A   Clear
5:35 AM 28.4 °F - 21.2 °F 74% 29.61 in 10.0 mi Calm Calm - N/A   Clear
5:55 AM 28.4 °F 21.2 °F 21.2 °F 74% 29.62 in 10.0 mi South 6.9 mph - N/A   Clear
6:15 AM 28.4 °F 24.6 °F 21.2 °F 74% 29.63 in 10.0 mi South 3.5 mph - N/A   Clear
6:35 AM 28.4 °F - 21.2 °F 74% 29.63 in 10.0 mi Calm Calm - N/A   Scattered Clouds
6:55 AM 28.4 °F - 21.2 °F 74% 29.63 in 10.0 mi Calm Calm - N/A   Scattered Clouds
7:15 AM 26.6 °F 22.6 °F 21.2 °F 80% 29.64 in 10.0 mi West 3.5 mph - N/A   Partly Cloudy
7:35 AM 26.6 °F - 21.2 °F 80% 29.65 in 10.0 mi Calm Calm - N/A   Clear
8:15 AM 28.4 °F 22.2 °F 21.2 °F 74% 29.66 in 10.0 mi WSW 5.8 mph - N/A   Clear
8:35 AM 32.0 °F 26.4 °F 24.8 °F 75% 29.66 in 10.0 mi WSW 5.8 mph - N/A   Clear
8:55 AM 32.0 °F 28.7 °F 24.8 °F 75% 29.66 in 10.0 mi West 3.5 mph - N/A   Clear
9:15 AM 33.8 °F 27.0 °F 24.8 °F 70% 29.67 in 10.0 mi West 8.1 mph - N/A   Clear
9:35 AM 35.6 °F 29.2 °F 26.6 °F 70% 29.69 in 10.0 mi West 8.1 mph - N/A   Clear
10:15 AM 39.2 °F 35.0 °F 26.6 °F 61% 29.68 in 10.0 mi WSW 5.8 mph - N/A   Clear
10:35 AM 41.0 °F - 26.6 °F 57% 29.68 in 10.0 mi Calm Calm - N/A   Clear
10:55 AM 42.8 °F 40.1 °F 28.4 °F 57% 29.68 in 10.0 mi SE 4.6 mph - N/A   Clear
11:15 AM 42.8 °F 41.1 °F 28.4 °F 57% 29.68 in 10.0 mi East 3.5 mph - N/A   Clear
11:55 AM 42.8 °F 36.6 °F 30.2 °F 61% 29.67 in 10.0 mi South 11.5 mph - N/A   Clear
12:15 PM 42.8 °F 37.0 °F 32.0 °F 66% 29.67 in 10.0 mi SSW 10.4 mph - N/A   Clear
12:35 PM 44.6 °F 38.1 °F 33.8 °F 66% 29.66 in 10.0 mi SSW 13.8 mph - N/A   Clear
12:55 PM 44.6 °F 39.7 °F 35.6 °F 71% 29.65 in 10.0 mi SSW 9.2 mph 17.3 mph N/A   Clear
1:35 PM 46.4 °F 40.7 °F 35.6 °F 66% 29.65 in 9.0 mi South 12.7 mph - N/A   Partly Cloudy
1:55 PM 46.4 °F 41.9 °F 35.6 °F 66% 29.65 in 10.0 mi South 9.2 mph 20.7 mph N/A   Clear
2:15 PM 46.4 °F 41.1 °F 35.6 °F 66% 29.64 in 10.0 mi SSW 11.5 mph 17.3 mph N/A   Clear
2:35 PM 48.2 °F - 35.6 °F 62% 29.63 in 10.0 mi SSW 12.7 mph 17.3 mph N/A   Clear
2:55 PM 48.2 °F - 35.6 °F 62% 29.63 in 10.0 mi South 9.2 mph - N/A   Clear
3:15 PM 48.2 °F - 35.6 °F 62% 29.63 in 10.0 mi South 10.4 mph - N/A   Clear
3:35 PM 48.2 °F - 35.6 °F 62% 29.62 in 10.0 mi South 11.5 mph - N/A   Clear
4:15 PM 48.2 °F - 33.8 °F 58% 29.62 in 10.0 mi South 9.2 mph - N/A   Clear
4:35 PM 48.2 °F - 35.6 °F 62% 29.63 in 10.0 mi South 6.9 mph - N/A   Clear
4:55 PM 46.4 °F 43.5 °F 35.6 °F 66% 29.62 in 10.0 mi South 5.8 mph - N/A   Clear
5:15 PM 46.4 °F 44.3 °F 35.6 °F 66% 29.61 in 10.0 mi South 4.6 mph - N/A   Clear
5:55 PM 44.6 °F 40.7 °F 37.4 °F 76% 29.61 in 10.0 mi SSE 6.9 mph - N/A   Clear
6:15 PM 44.6 °F 40.2 °F 37.4 °F 76% 29.60 in 10.0 mi South 8.1 mph - N/A   Clear
6:35 PM 44.6 °F 40.2 °F 37.4 °F 76% 29.59 in 9.0 mi SSE 8.1 mph - N/A   Clear
6:55 PM 46.4 °F 41.9 °F 39.2 °F 76% 29.58 in 9.0 mi South 9.2 mph - N/A   Clear
7:35 PM 46.4 °F 41.5 °F 39.2 °F 76% 29.57 in 10.0 mi South 10.4 mph 16.1 mph N/A   Clear
7:55 PM 46.4 °F 41.5 °F 39.2 °F 76% 29.56 in 10.0 mi South 10.4 mph 16.1 mph N/A   Clear
8:35 PM 46.4 °F 41.5 °F 39.2 °F 76% 29.54 in 10.0 mi South 10.4 mph 16.1 mph N/A   Clear
8:55 PM 46.4 °F 41.1 °F 39.2 °F 76% 29.54 in 10.0 mi South 11.5 mph - N/A   Clear
9:15 PM 48.2 °F - 39.2 °F 71% 29.53 in 10.0 mi SSW 9.2 mph 16.1 mph N/A   Clear
9:35 PM 48.2 °F - 39.2 °F 71% 29.52 in 10.0 mi South 12.7 mph - N/A   Clear
9:55 PM 48.2 °F - 39.2 °F 71% 29.51 in 10.0 mi South 11.5 mph - N/A   Clear
10:15 PM 48.2 °F - 39.2 °F 71% 29.51 in 10.0 mi South 11.5 mph 17.3 mph N/A   Clear
10:35 PM 48.2 °F - 39.2 °F 71% 29.50 in 10.0 mi SSW 11.5 mph 16.1 mph N/A   Clear
10:55 PM 48.2 °F - 39.2 °F 71% 29.49 in 10.0 mi South 10.4 mph 16.1 mph N/A   Clear
11:15 PM 48.2 °F - 41.0 °F 76% 29.48 in 10.0 mi South 11.5 mph - N/A   Clear
11:35 PM 48.2 °F - 39.2 °F 71% 29.46 in 10.0 mi South 10.4 mph 17.3 mph N/A   Clear
11:55 PM 48.2 °F - 39.2 °F 71% 29.45 in 10.0 mi South 12.7 mph 17.3 mph N/A   Clear